Lid_Strength_Index
3 3 3 3 3 3 2 2 2 2 2 2 2 2 1 1 2 5 8 5 3 -1 -1 1 2 2 2 4 3 4 10 13 12 11 10 7 8 5 4 6 5 4 5 4 2
3 3 3 3 3 3 3 3 2 2 2 2 2 2 1 1 4 6 1 -2 -2 -1 5 5 5 4 6 5 5 8 11 11 8 8 8 7 7 6 7 7 7 6 4 3 3
3 3 3 3 3 3 3 3 3 3 3 2 2 1 1 2 8 6 -3 -2 -2 -1 5 4 4 5 7 6 6 7 11 8 7 7 6 6 7 6 7 9 7 7 5 4 4
3 3 3 3 3 3 3 3 3 3 3 2 2 1 1 3 10 5 -1 -1 -2 2 4 4 5 6 8 8 6 9 7 7 6 6 6 7 5 7 7 7 4 4 4 4 4
3 3 3 3 3 3 3 3 3 3 3 2 2 1 5 10 9 5 -3 -2 2 5 5 5 6 7 9 7 7 8 7 6 6 6 6 5 7 7 7 5 4 4 4 4 4
3 3 4 4 4 3 3 3 3 3 3 2 2 1 6 11 6 4 6 5 5 6 7 5 6 6 7 7 8 7 7 7 6 6 6 7 7 7 6 4 5 5 5 4 4
4 3 4 4 4 4 4 4 4 3 3 2 1 2 7 9 6 5 5 7 7 7 8 5 5 8 6 8 5 7 9 8 7 6 7 6 9 9 6 5 6 5 5 4 4
3 3 3 4 4 4 4 4 4 3 2 2 1 4 10 6 5 4 6 6 8 8 7 6 5 7 6 5 7 9 9 12 8 7 6 8 13 8 6 6 6 6 5 5 5
4 4 3 4 4 4 4 5 4 3 2 2 6 8 9 3 5 4 5 6 9 9 7 4 6 6 6 9 11 10 14 13 11 7 7 8 11 7 6 6 7 6 5 5 4
4 4 4 4 4 4 5 5 4 3 2 2 3 10 9 8 6 5 6 5 8 9 8 7 8 10 9 11 14 13 13 12 12 9 8 10 10 8 7 6 7 6 6 5 5
3 4 4 4 4 5 7 8 8 9 8 10 10 9 8 7 6 7 7 7 8 10 13 10 11 11 10 9 9 10 11 12 10 8 9 10 10 9 7 7 7 7 6 6 5
3 3 3 4 5 5 7 11 9 7 10 7 7 7 7 6 7 7 7 8 9 12 11 11 12 9 9 8 9 10 11 11 9 8 9 10 11 8 8 7 7 7 6 6 5
3 3 3 4 5 8 9 8 6 7 10 8 7 8 7 7 8 8 8 9 9 11 11 12 9 8 8 9 10 11 12 11 11 9 9 11 12 11 8 7 7 6 6 5 5
2 3 3 5 7 8 9 6 6 7 14 11 10 7 7 7 8 6 7 8 10 11 11 11 9 8 9 10 10 13 8 9 11 12 15 11 17 12 10 9 8 7 7 6 5
2 3 4 5 8 8 7 6 6 8 18 9 10 5 8 8 10 10 7 9 10 10 11 10 9 10 10 9 8 10 8 9 10 12 14 13 15 12 11 11 9 8 7 6 5
2 3 4 6 8 6 5 6 8 13 17 10 9 9 9 10 10 9 9 9 8 10 11 10 9 10 9 7 7 7 9 10 11 12 17 14 15 15 13 11 9 7 6 6 5
3 4 4 4 7 6 6 7 13 16 9 11 12 11 12 12 11 11 11 12 13 14 15 12 12 11 8 10 8 9 12 16 17 18 18 15 15 13 10 9 8 8 7 6 5
4 5 6 5 6 5 6 9 15 11 11 10 9 12 11 12 12 12 12 13 13 12 14 14 15 11 9 9 10 11 12 15 19 19 17 13 16 13 9 7 7 7 6 6 6
5 8 7 6 5 6 8 13 13 11 9 9 10 14 14 12 12 12 13 13 12 11 13 14 15 11 10 10 8 11 13 11 14 15 16 15 13 10 9 8 7 7 7 7 6
7 8 7 5 4 6 9 12 11 8 8 9 12 12 13 13 13 14 13 11 11 10 12 12 15 13 11 11 9 10 9 13 14 19 20 16 16 14 11 10 8 8 8 7 6
8 8 5 5 5 8 11 11 9 8 7 9 11 11 11 12 12 13 12 10 9 10 10 13 13 14 13 14 14 11 12 13 13 15 17 19 16 10 10 9 9 8 7 7 6
9 9 5 5 9 11 11 9 7 9 8 9 9 10 11 11 12 13 12 10 9 10 11 12 14 15 14 13 11 10 10 12 14 16 15 15 14 8 8 8 8 7 7 6 5
9 11 5 7 13 13 12 9 8 9 9 9 10 9 10 11 13 11 11 8 9 9 11 11 14 17 16 15 13 12 12 11 12 12 16 16 14 9 9 9 8 8 7 7 6
9 10 7 8 10 11 11 10 10 6 7 8 9 9 10 11 12 11 10 7 8 9 5 8 15 14 15 15 13 12 11 11 13 14 14 14 12 11 10 10 8 7 7 7 6
9 9 8 11 10 10 10 10 10 10 7 9 9 10 11 13 12 11 10 8 7 6 10 11 13 14 14 13 12 11 11 12 13 13 13 12 12 10 9 9 8 7 7 7 7
10 9 8 9 9 10 11 11 10 9 9 9 11 8 10 13 12 12 10 10 10 9 12 12 14 15 14 11 11 12 11 10 11 11 12 11 11 9 8 8 8 7 7 7 7
7 7 7 9 9 10 10 10 9 8 7 7 7 9 10 9 7 9 10 8 9 8 11 13 14 14 15 13 12 14 12 11 10 10 10 13 10 9 9 8 7 7 7 7 6